Time,TemperatureF,DewpointF,PressureIn,WindDirection,WindDirectionDegrees,WindSpeedMPH,WindSpeedGustMPH,Humidity,HourlyPrecipIn,Conditions,Clouds,dailyrainin,SoftwareType,DateUTC
2013-05-03 00:00:00,64.0,37.2,30.00,NE,45,0.0,0.0,37,0.00,,,0.00,meteohub,2013-05-03 07:00:00,
2013-05-03 00:05:00,64.0,37.2,29.99,NE,45,0.0,0.0,37,0.00,,,0.00,meteohub,2013-05-03 07:05:00,
2013-05-03 00:10:00,63.5,36.7,29.99,NW,315,0.0,0.0,37,0.00,,,0.00,meteohub,2013-05-03 07:10:00,
2013-05-03 00:15:00,63.3,37.2,29.99,NW,315,0.0,0.0,38,0.00,,,0.00,meteohub,2013-05-03 07:15:00,
2013-05-03 00:20:00,63.1,37.0,29.99,North,0,0.0,0.0,38,0.00,,,0.00,meteohub,2013-05-03 07:20:00,
2013-05-03 00:25:00,63.0,37.6,29.99,SE,135,0.0,0.0,39,0.00,,,0.00,meteohub,2013-05-03 07:25:00,
2013-05-03 00:30:00,62.8,37.4,29.99,SE,135,0.0,0.0,39,0.00,,,0.00,meteohub,2013-05-03 07:30:00,
2013-05-03 00:35:00,62.4,37.8,29.99,SE,135,0.0,0.0,40,0.00,,,0.00,meteohub,2013-05-03 07:35:00,
2013-05-03 00:40:00,62.2,37.6,29.99,SE,135,0.0,0.0,40,0.00,,,0.00,meteohub,2013-05-03 07:40:00,
2013-05-03 00:45:00,62.1,38.1,29.99,SE,135,0.0,0.0,41,0.00,,,0.00,meteohub,2013-05-03 07:45:00,
2013-05-03 00:51:00,61.9,37.2,29.99,East,90,0.0,0.0,40,0.00,,,0.00,meteohub,2013-05-03 07:51:00,
2013-05-03 00:56:00,61.7,37.2,29.99,South,180,0.0,0.0,40,0.00,,,0.00,meteohub,2013-05-03 07:56:00,
2013-05-03 01:01:00,61.9,37.2,29.99,SW,225,0.0,0.0,40,0.00,,,0.00,meteohub,2013-05-03 08:01:00,
2013-05-03 01:06:00,61.9,37.2,29.99,SW,225,0.0,0.0,40,0.00,,,0.00,meteohub,2013-05-03 08:06:00,
2013-05-03 01:11:00,61.7,36.5,29.99,South,180,0.0,0.0,39,0.00,,,0.00,meteohub,2013-05-03 08:11:00,
2013-05-03 01:16:00,61.7,36.5,29.99,South,180,0.0,0.0,39,0.00,,,0.00,meteohub,2013-05-03 08:16:00,
2013-05-03 01:21:00,61.5,37.0,29.98,South,180,0.0,0.0,40,0.00,,,0.00,meteohub,2013-05-03 08:21:00,
2013-05-03 01:26:00,61.2,36.7,29.98,East,90,0.0,0.0,40,0.00,,,0.00,meteohub,2013-05-03 08:26:00,
2013-05-03 01:31:00,61.0,36.5,29.98,East,90,0.0,0.0,40,0.00,,,0.00,meteohub,2013-05-03 08:31:00,
2013-05-03 01:36:00,60.8,36.3,29.98,North,0,0.0,0.0,40,0.00,,,0.00,meteohub,2013-05-03 08:36:00,
2013-05-03 01:41:00,60.8,36.3,29.98,South,180,0.0,0.0,40,0.00,,,0.00,meteohub,2013-05-03 08:41:00,
2013-05-03 01:47:00,60.6,36.1,29.98,South,180,0.0,0.0,40,0.00,,,0.00,meteohub,2013-05-03 08:47:00,
2013-05-03 01:52:00,60.6,36.1,29.98,South,180,0.0,0.0,40,0.00,,,0.00,meteohub,2013-05-03 08:52:00,
2013-05-03 01:57:00,60.4,36.7,29.98,South,180,0.0,0.0,41,0.00,,,0.00,meteohub,2013-05-03 08:57:00,
2013-05-03 02:02:00,60.3,36.5,29.98,South,180,0.0,0.0,41,0.00,,,0.00,meteohub,2013-05-03 09:02:00,
2013-05-03 02:07:00,60.3,36.5,29.98,South,180,0.0,0.0,41,0.00,,,0.00,meteohub,2013-05-03 09:07:00,
2013-05-03 02:12:00,60.1,36.3,29.98,South,180,0.0,0.0,41,0.00,,,0.00,meteohub,2013-05-03 09:12:00,
2013-05-03 02:17:00,59.9,36.1,29.98,South,180,0.0,0.0,41,0.00,,,0.00,meteohub,2013-05-03 09:17:00,
2013-05-03 02:22:00,59.7,36.0,29.97,South,180,0.0,0.0,41,0.00,,,0.00,meteohub,2013-05-03 09:22:00,
2013-05-03 02:27:00,59.7,36.0,29.97,South,180,0.0,0.0,41,0.00,,,0.00,meteohub,2013-05-03 09:27:00,
2013-05-03 02:32:00,59.7,36.5,29.97,SW,225,0.0,0.0,42,0.00,,,0.00,meteohub,2013-05-03 09:32:00,
2013-05-03 02:37:00,59.9,36.1,29.96,South,180,0.0,0.0,41,0.00,,,0.00,meteohub,2013-05-03 09:37:00,
2013-05-03 02:42:00,60.1,36.3,29.96,SE,135,0.0,1.0,41,0.00,,,0.00,meteohub,2013-05-03 09:42:00,
2013-05-03 02:47:00,60.1,36.3,29.96,South,180,0.0,1.0,41,0.00,,,0.00,meteohub,2013-05-03 09:47:00,
2013-05-03 02:52:00,60.1,36.3,29.96,South,180,0.0,1.0,41,0.00,,,0.00,meteohub,2013-05-03 09:52:00,
2013-05-03 02:57:00,60.1,36.9,29.96,North,0,0.0,0.0,42,0.00,,,0.00,meteohub,2013-05-03 09:57:00,
2013-05-03 03:02:00,59.9,36.7,29.96,NE,45,0.0,0.0,42,0.00,,,0.00,meteohub,2013-05-03 10:02:00,
2013-05-03 03:07:00,59.7,36.5,29.96,North,0,0.0,0.0,42,0.00,,,0.00,meteohub,2013-05-03 10:07:00,
2013-05-03 03:12:00,59.5,37.0,29.96,North,0,0.0,0.0,43,0.00,,,0.00,meteohub,2013-05-03 10:12:00,
2013-05-03 03:17:00,59.4,36.9,29.96,North,0,0.0,0.0,43,0.00,,,0.00,meteohub,2013-05-03 10:17:00,
2013-05-03 03:22:00,59.4,36.9,29.96,North,0,0.0,0.0,43,0.00,,,0.00,meteohub,2013-05-03 10:22:00,
2013-05-03 03:27:00,59.4,37.4,29.96,North,0,0.0,0.0,44,0.00,,,0.00,meteohub,2013-05-03 10:27:00,
2013-05-03 03:32:00,59.4,37.4,29.96,North,0,0.0,0.0,44,0.00,,,0.00,meteohub,2013-05-03 10:32:00,
2013-05-03 03:37:00,59.4,37.4,29.96,North,0,0.0,0.0,44,0.00,,,0.00,meteohub,2013-05-03 10:37:00,
2013-05-03 03:42:00,59.2,37.9,29.96,North,0,0.0,0.0,45,0.00,,,0.00,meteohub,2013-05-03 10:42:00,
2013-05-03 03:47:00,59.0,38.3,29.96,NE,45,0.0,0.0,46,0.00,,,0.00,meteohub,2013-05-03 10:47:00,
2013-05-03 03:52:00,58.8,38.1,29.96,NE,45,0.0,1.0,46,0.00,,,0.00,meteohub,2013-05-03 10:52:00,
2013-05-03 03:57:00,58.6,36.9,29.96,NE,45,0.0,1.0,44,0.00,,,0.00,meteohub,2013-05-03 10:57:00,
2013-05-03 04:02:00,58.5,37.2,29.96,NE,45,0.0,1.0,45,0.00,,,0.00,meteohub,2013-05-03 11:02:00,
2013-05-03 04:07:00,58.5,37.2,29.96,NE,45,0.0,0.0,45,0.00,,,0.00,meteohub,2013-05-03 11:07:00,
2013-05-03 04:12:00,57.9,37.8,29.96,NE,45,0.0,0.0,47,0.00,,,0.00,meteohub,2013-05-03 11:12:00,
2013-05-03 04:17:00,57.6,37.9,29.96,NE,45,0.0,0.0,48,0.00,,,0.00,meteohub,2013-05-03 11:17:00,
2013-05-03 04:22:00,57.4,38.3,29.96,NE,45,0.0,0.0,49,0.00,,,0.00,meteohub,2013-05-03 11:22:00,
2013-05-03 04:27:00,57.0,38.1,29.96,NE,45,0.0,0.0,49,0.00,,,0.00,meteohub,2013-05-03 11:27:00,
2013-05-03 04:32:00,56.7,38.7,29.96,NE,45,0.0,0.0,51,0.00,,,0.00,meteohub,2013-05-03 11:32:00,
2013-05-03 04:37:00,56.5,38.7,29.96,NE,45,0.0,0.0,51,0.00,,,0.00,meteohub,2013-05-03 11:37:00,
2013-05-03 04:42:00,56.1,38.7,29.95,NE,45,0.0,0.0,52,0.00,,,0.00,meteohub,2013-05-03 11:42:00,
2013-05-03 04:47:00,55.8,39.4,29.95,NE,45,0.0,0.0,54,0.00,,,0.00,meteohub,2013-05-03 11:47:00,
2013-05-03 04:52:00,55.4,39.6,29.96,NE,45,0.0,0.0,55,0.00,,,0.00,meteohub,2013-05-03 11:52:00,
2013-05-03 04:57:00,55.0,39.2,29.96,NE,45,0.0,0.0,55,0.00,,,0.00,meteohub,2013-05-03 11:57:00,
2013-05-03 05:02:00,54.9,39.4,29.96,NE,45,0.0,0.0,56,0.00,,,0.00,meteohub,2013-05-03 12:02:00,
2013-05-03 05:07:00,54.9,39.9,29.96,NE,45,0.0,0.0,57,0.00,,,0.00,meteohub,2013-05-03 12:07:00,
2013-05-03 05:12:00,54.9,40.3,29.96,NE,45,0.0,0.0,58,0.00,,,0.00,meteohub,2013-05-03 12:12:00,
2013-05-03 05:17:00,55.0,41.0,29.96,NE,45,0.0,0.0,59,0.00,,,0.00,meteohub,2013-05-03 12:17:00,
2013-05-03 05:22:00,55.4,40.8,29.96,NE,45,0.0,0.0,58,0.00,,,0.00,meteohub,2013-05-03 12:22:00,
2013-05-03 05:27:00,55.4,40.8,29.96,NE,45,0.0,0.0,58,0.00,,,0.00,meteohub,2013-05-03 12:27:00,
2013-05-03 05:32:00,55.4,40.8,29.96,NE,45,0.0,0.0,58,0.00,,,0.00,meteohub,2013-05-03 12:32:00,
2013-05-03 05:37:00,55.4,40.8,29.96,NE,45,0.0,0.0,58,0.00,,,0.00,meteohub,2013-05-03 12:37:00,
2013-05-03 05:42:00,55.6,41.0,29.96,North,0,0.0,0.0,58,0.00,,,0.00,meteohub,2013-05-03 12:42:00,
2013-05-03 05:47:00,55.8,41.2,29.96,North,0,0.0,0.0,58,0.00,,,0.00,meteohub,2013-05-03 12:47:00,
2013-05-03 05:52:00,55.9,41.4,29.96,North,0,0.0,0.0,58,0.00,,,0.00,meteohub,2013-05-03 12:52:00,
2013-05-03 05:57:00,55.9,41.4,29.96,North,0,0.0,0.0,58,0.00,,,0.00,meteohub,2013-05-03 12:57:00,
2013-05-03 06:02:00,55.9,41.9,29.96,NE,45,0.0,1.0,59,0.00,,,0.00,meteohub,2013-05-03 13:02:00,
2013-05-03 06:07:00,56.1,41.9,29.96,North,0,0.0,1.0,59,0.00,,,0.00,meteohub,2013-05-03 13:07:00,
2013-05-03 06:12:00,56.3,42.6,29.96,NE,45,2.0,2.0,60,0.00,,,0.00,meteohub,2013-05-03 13:12:00,
2013-05-03 06:17:00,56.5,42.8,29.96,NE,45,0.0,2.0,60,0.00,,,0.00,meteohub,2013-05-03 13:17:00,
2013-05-03 06:22:00,56.5,43.2,29.96,North,0,0.0,2.0,61,0.00,,,0.00,meteohub,2013-05-03 13:22:00,
2013-05-03 06:27:00,56.5,43.7,29.96,North,0,0.0,2.0,62,0.00,,,0.00,meteohub,2013-05-03 13:27:00,
2013-05-03 06:32:00,56.7,43.7,29.96,NE,45,0.0,0.0,62,0.00,,,0.00,meteohub,2013-05-03 13:32:00,
2013-05-03 06:37:00,56.8,43.9,29.96,NE,45,0.0,0.0,62,0.00,,,0.00,meteohub,2013-05-03 13:37:00,
2013-05-03 06:42:00,57.2,44.8,29.96,NE,45,2.0,2.0,63,0.00,,,0.00,meteohub,2013-05-03 13:42:00,
2013-05-03 06:47:00,57.4,45.0,29.96,NE,45,1.0,2.0,63,0.00,,,0.00,meteohub,2013-05-03 13:47:00,
2013-05-03 06:52:00,57.7,45.3,29.96,North,0,3.0,3.0,63,0.00,,,0.00,meteohub,2013-05-03 13:52:00,
2013-05-03 06:57:00,57.9,45.3,29.96,NE,45,3.0,4.0,63,0.00,,,0.00,meteohub,2013-05-03 13:57:00,
2013-05-03 07:02:00,58.1,45.5,29.96,North,0,3.0,4.0,63,0.00,,,0.00,meteohub,2013-05-03 14:02:00,
2013-05-03 07:07:00,58.5,45.9,29.96,NE,45,3.0,4.0,63,0.00,,,0.00,meteohub,2013-05-03 14:07:00,
2013-05-03 07:12:00,58.8,46.2,29.97,NE,45,4.0,5.0,63,0.00,,,0.00,meteohub,2013-05-03 14:12:00,
2013-05-03 07:17:00,59.0,46.4,29.97,NE,45,4.0,5.0,63,0.00,,,0.00,meteohub,2013-05-03 14:17:00,
2013-05-03 07:22:00,59.5,46.6,29.97,NE,45,3.0,5.0,62,0.00,,,0.00,meteohub,2013-05-03 14:22:00,
2013-05-03 07:27:00,59.9,46.8,29.97,NE,45,3.0,5.0,62,0.00,,,0.00,meteohub,2013-05-03 14:27:00,
2013-05-03 07:32:00,60.1,46.6,29.97,NE,45,3.0,5.0,61,0.00,,,0.00,meteohub,2013-05-03 14:32:00,
2013-05-03 07:37:00,60.4,46.4,29.97,NE,45,4.0,4.0,60,0.00,,,0.00,meteohub,2013-05-03 14:37:00,
2013-05-03 07:42:00,60.8,47.3,29.97,NE,45,2.0,5.0,61,0.00,,,0.00,meteohub,2013-05-03 14:42:00,
2013-05-03 07:47:00,61.2,47.7,29.97,NE,45,5.0,6.0,61,0.00,,,0.00,meteohub,2013-05-03 14:47:00,
2013-05-03 07:52:00,61.7,47.7,29.97,East,90,4.0,6.0,60,0.00,,,0.00,meteohub,2013-05-03 14:52:00,
2013-05-03 07:57:00,62.1,47.5,29.97,NE,45,3.0,6.0,59,0.00,,,0.00,meteohub,2013-05-03 14:57:00,
2013-05-03 08:02:00,62.8,47.8,29.97,NE,45,4.0,6.0,58,0.00,,,0.00,meteohub,2013-05-03 15:02:00,
2013-05-03 08:07:00,63.1,47.7,29.97,North,0,6.0,7.0,57,0.00,,,0.00,meteohub,2013-05-03 15:07:00,
2013-05-03 08:12:00,63.5,47.5,29.97,NE,45,2.0,7.0,56,0.00,,,0.00,meteohub,2013-05-03 15:12:00,
2013-05-03 08:17:00,64.0,48.0,29.97,NE,45,4.0,6.0,56,0.00,,,0.00,meteohub,2013-05-03 15:17:00,
2013-05-03 08:22:00,64.6,48.0,29.97,NE,45,3.0,6.0,55,0.00,,,0.00,meteohub,2013-05-03 15:22:00,
2013-05-03 08:27:00,65.1,48.0,29.96,North,0,4.0,7.0,54,0.00,,,0.00,meteohub,2013-05-03 15:27:00,
2013-05-03 08:32:00,65.5,48.4,29.96,NE,45,6.0,7.0,54,0.00,,,0.00,meteohub,2013-05-03 15:32:00,
2013-05-03 08:37:00,66.0,48.4,29.96,North,0,3.0,7.0,53,0.00,,,0.00,meteohub,2013-05-03 15:37:00,
2013-05-03 08:42:00,66.6,48.9,29.96,East,90,3.0,7.0,53,0.00,,,0.00,meteohub,2013-05-03 15:42:00,
2013-05-03 08:47:00,67.1,48.9,29.96,NE,45,3.0,7.0,52,0.00,,,0.00,meteohub,2013-05-03 15:47:00,
2013-05-03 08:52:00,67.8,49.6,29.96,North,0,3.0,6.0,52,0.00,,,0.00,meteohub,2013-05-03 15:52:00,
2013-05-03 08:57:00,68.4,48.9,29.96,NE,45,5.0,6.0,50,0.00,,,0.00,meteohub,2013-05-03 15:57:00,
2013-05-03 09:02:00,69.1,49.1,29.96,North,0,2.0,6.0,49,0.00,,,0.00,meteohub,2013-05-03 16:02:00,
2013-05-03 09:07:00,70.2,47.8,29.96,North,0,4.0,6.0,45,0.00,,,0.00,meteohub,2013-05-03 16:07:00,
2013-05-03 09:12:00,70.7,47.7,29.96,NE,45,4.0,6.0,44,0.00,,,0.00,meteohub,2013-05-03 16:12:00,
2013-05-03 09:17:00,71.6,47.3,29.96,NE,45,4.0,6.0,42,0.00,,,0.00,meteohub,2013-05-03 16:17:00,
2013-05-03 09:22:00,72.5,47.5,29.95,NE,45,3.0,6.0,41,0.00,,,0.00,meteohub,2013-05-03 16:22:00,
2013-05-03 09:27:00,73.4,44.8,29.95,NE,45,4.0,5.0,36,0.00,,,0.00,meteohub,2013-05-03 16:27:00,
2013-05-03 09:32:00,73.8,45.9,29.95,NE,45,2.0,7.0,37,0.00,,,0.00,meteohub,2013-05-03 16:32:00,
2013-05-03 09:37:00,74.5,45.9,29.95,NE,45,4.0,7.0,36,0.00,,,0.00,meteohub,2013-05-03 16:37:00,
2013-05-03 09:42:00,75.0,46.2,29.95,East,90,2.0,7.0,36,0.00,,,0.00,meteohub,2013-05-03 16:42:00,
2013-05-03 09:47:00,75.7,46.2,29.94,NE,45,3.0,4.0,35,0.00,,,0.00,meteohub,2013-05-03 16:47:00,
2013-05-03 09:52:00,76.3,46.6,29.94,North,0,0.0,4.0,35,0.00,,,0.00,meteohub,2013-05-03 16:52:00,
2013-05-03 09:57:00,77.2,46.6,29.94,NE,45,1.0,4.0,34,0.00,,,0.00,meteohub,2013-05-03 16:57:00,
2013-05-03 10:02:00,77.5,46.9,29.94,NE,45,2.0,4.0,34,0.00,,,0.00,meteohub,2013-05-03 17:02:00,
2013-05-03 10:07:00,78.6,46.2,29.94,NE,45,3.0,4.0,32,0.00,,,0.00,meteohub,2013-05-03 17:07:00,
2013-05-03 10:12:00,78.8,45.7,29.94,NE,45,4.0,4.0,31,0.00,,,0.00,meteohub,2013-05-03 17:12:00,
2013-05-03 10:17:00,79.0,45.7,29.93,North,0,3.0,5.0,31,0.00,,,0.00,meteohub,2013-05-03 17:17:00,
2013-05-03 10:22:00,79.2,45.1,29.93,NE,45,3.0,5.0,30,0.00,,,0.00,meteohub,2013-05-03 17:22:00,
2013-05-03 10:27:00,79.3,46.0,29.93,NE,45,4.0,5.0,31,0.00,,,0.00,meteohub,2013-05-03 17:27:00,
2013-05-03 10:32:00,80.1,45.9,29.93,North,0,3.0,4.0,30,0.00,,,0.00,meteohub,2013-05-03 17:32:00,
2013-05-03 10:37:00,80.6,45.3,29.93,North,0,4.0,4.0,29,0.00,,,0.00,meteohub,2013-05-03 17:37:00,
2013-05-03 10:42:00,81.1,43.0,29.93,NE,45,6.0,6.0,26,0.00,,,0.00,meteohub,2013-05-03 17:42:00,
2013-05-03 10:47:00,81.7,42.4,29.93,NE,45,4.0,6.0,25,0.00,,,0.00,meteohub,2013-05-03 17:47:00,
2013-05-03 10:52:00,81.9,42.6,29.93,NE,45,4.0,6.0,25,0.00,,,0.00,meteohub,2013-05-03 17:52:00,
2013-05-03 10:57:00,82.4,41.9,29.92,NE,45,2.0,6.0,24,0.00,,,0.00,meteohub,2013-05-03 17:57:00,
2013-05-03 11:02:00,82.8,42.3,29.92,East,90,4.0,6.0,24,0.00,,,0.00,meteohub,2013-05-03 18:02:00,
2013-05-03 11:07:00,82.8,42.3,29.92,East,90,4.0,6.0,24,0.00,,,0.00,meteohub,2013-05-03 18:07:00,
2013-05-03 11:12:00,83.5,41.7,29.92,NE,45,4.0,6.0,23,0.00,,,0.00,meteohub,2013-05-03 18:12:00,
2013-05-03 11:17:00,84.0,42.3,29.92,WNW,293,2.0,6.0,23,0.00,,,0.00,meteohub,2013-05-03 18:17:00,
2013-05-03 11:22:00,84.4,42.6,29.91,NE,45,4.0,6.0,23,0.00,,,0.00,meteohub,2013-05-03 18:22:00,
2013-05-03 11:27:00,84.9,41.9,29.91,North,0,6.0,6.0,22,0.00,,,0.00,meteohub,2013-05-03 18:27:00,
2013-05-03 11:32:00,85.6,42.4,29.91,NE,45,0.0,6.0,22,0.00,,,0.00,meteohub,2013-05-03 18:32:00,
2013-05-03 11:37:00,86.5,43.2,29.91,North,0,0.0,6.0,22,0.00,,,0.00,meteohub,2013-05-03 18:37:00,
2013-05-03 11:42:00,87.3,43.7,29.91,North,0,2.0,6.0,22,0.00,,,0.00,meteohub,2013-05-03 18:42:00,
2013-05-03 11:47:00,87.6,41.5,29.91,East,90,2.0,8.0,20,0.00,,,0.00,meteohub,2013-05-03 18:47:00,
2013-05-03 11:52:00,87.6,40.3,29.91,NE,45,3.0,8.0,19,0.00,,,0.00,meteohub,2013-05-03 18:52:00,
2013-05-03 11:57:00,87.6,38.8,29.90,North,0,4.0,8.0,18,0.00,,,0.00,meteohub,2013-05-03 18:57:00,
2013-05-03 12:02:00,87.6,38.8,29.90,NE,45,6.0,6.0,18,0.00,,,0.00,meteohub,2013-05-03 19:02:00,
2013-05-03 12:07:00,88.2,40.6,29.90,NE,45,1.0,6.0,19,0.00,,,0.00,meteohub,2013-05-03 19:07:00,
2013-05-03 12:12:00,88.9,39.9,29.90,NE,45,4.0,7.0,18,0.00,,,0.00,meteohub,2013-05-03 19:12:00,
2013-05-03 12:17:00,89.2,40.3,29.90,NW,315,4.0,7.0,18,0.00,,,0.00,meteohub,2013-05-03 19:17:00,
2013-05-03 12:22:00,89.4,38.8,29.89,North,0,2.0,4.0,17,0.00,,,0.00,meteohub,2013-05-03 19:22:00,
2013-05-03 12:27:00,89.8,39.2,29.89,NE,45,2.0,5.0,17,0.00,,,0.00,meteohub,2013-05-03 19:27:00,
2013-05-03 12:32:00,90.1,36.3,29.89,East,90,4.0,5.0,15,0.00,,,0.00,meteohub,2013-05-03 19:32:00,
2013-05-03 12:37:00,90.5,36.5,29.88,West,270,2.0,5.0,15,0.00,,,0.00,meteohub,2013-05-03 19:37:00,
2013-05-03 12:42:00,90.7,38.3,29.88,NE,45,1.0,5.0,16,0.00,,,0.00,meteohub,2013-05-03 19:42:00,
2013-05-03 12:47:00,91.0,35.2,29.88,East,90,6.0,6.0,14,0.00,,,0.00,meteohub,2013-05-03 19:47:00,
2013-05-03 12:52:00,91.0,35.2,29.88,North,0,4.0,6.0,14,0.00,,,0.00,meteohub,2013-05-03 19:52:00,
2013-05-03 12:57:00,91.0,33.4,29.88,NE,45,2.0,6.0,13,0.00,,,0.00,meteohub,2013-05-03 19:57:00,
2013-05-03 13:02:00,91.2,35.4,29.87,NE,45,2.0,6.0,14,0.00,,,0.00,meteohub,2013-05-03 20:02:00,
2013-05-03 13:07:00,91.6,35.6,29.87,North,0,2.0,4.0,14,0.00,,,0.00,meteohub,2013-05-03 20:07:00,
2013-05-03 13:12:00,92.1,36.1,29.87,NE,45,0.0,7.0,14,0.00,,,0.00,meteohub,2013-05-03 20:12:00,
2013-05-03 13:17:00,92.7,32.7,29.87,East,90,3.0,7.0,12,0.00,,,0.00,meteohub,2013-05-03 20:17:00,
2013-05-03 13:22:00,93.0,30.7,29.86,NE,45,1.0,7.0,11,0.00,,,0.00,meteohub,2013-05-03 20:22:00,
2013-05-03 13:27:00,93.7,33.4,29.85,NE,45,0.0,4.0,12,0.00,,,0.00,meteohub,2013-05-03 20:27:00,
2013-05-03 13:32:00,93.9,31.5,29.86,North,0,0.0,4.0,11,0.00,,,0.00,meteohub,2013-05-03 20:32:00,
2013-05-03 13:37:00,94.3,31.6,29.85,NE,45,2.0,4.0,11,0.00,,,0.00,meteohub,2013-05-03 20:37:00,
2013-05-03 13:42:00,94.1,29.3,29.85,NE,45,2.0,5.0,10,0.00,,,0.00,meteohub,2013-05-03 20:42:00,
2013-05-03 13:47:00,94.1,29.3,29.85,East,90,0.0,5.0,10,0.00,,,0.00,meteohub,2013-05-03 20:47:00,
2013-05-03 13:52:00,94.5,94.5,29.84,West,270,0.0,5.0,0,0.00,,,0.00,meteohub,2013-05-03 20:52:00,
2013-05-03 13:57:00,94.8,94.8,29.84,NE,45,2.0,4.0,0,0.00,,,0.00,meteohub,2013-05-03 20:57:00,
2013-05-03 14:02:00,94.8,94.8,29.83,East,90,2.0,4.0,0,0.00,,,0.00,meteohub,2013-05-03 21:02:00,
2013-05-03 14:07:00,94.8,94.8,29.83,NE,45,0.0,4.0,0,0.00,,,0.00,meteohub,2013-05-03 21:07:00,
2013-05-03 14:12:00,95.5,95.5,29.83,NE,45,2.0,4.0,0,0.00,,,0.00,meteohub,2013-05-03 21:12:00,
2013-05-03 14:17:00,95.9,95.9,29.83,NE,45,2.0,4.0,0,0.00,,,0.00,meteohub,2013-05-03 21:17:00,
2013-05-03 14:22:00,95.9,95.9,29.83,North,0,2.0,3.0,0,0.00,,,0.00,meteohub,2013-05-03 21:22:00,
2013-05-03 14:27:00,96.4,96.4,29.82,East,90,0.0,3.0,0,0.00,,,0.00,meteohub,2013-05-03 21:27:00,
2013-05-03 14:32:00,96.8,96.8,29.82,SE,135,0.0,3.0,0,0.00,,,0.00,meteohub,2013-05-03 21:32:00,
2013-05-03 14:37:00,96.8,96.8,29.82,NE,45,1.0,2.0,0,0.00,,,0.00,meteohub,2013-05-03 21:37:00,
2013-05-03 14:42:00,97.2,97.2,29.82,SSE,158,0.0,2.0,0,0.00,,,0.00,meteohub,2013-05-03 21:42:00,
2013-05-03 14:47:00,97.5,97.5,29.81,NE,45,2.0,2.0,0,0.00,,,0.00,meteohub,2013-05-03 21:47:00,
2013-05-03 14:52:00,97.2,97.2,29.81,NE,45,0.0,2.0,0,0.00,,,0.00,meteohub,2013-05-03 21:52:00,
2013-05-03 14:57:00,97.2,97.2,29.81,SW,225,3.0,3.0,0,0.00,,,0.00,meteohub,2013-05-03 21:57:00,
2013-05-03 15:02:00,97.3,97.3,29.80,North,0,0.0,3.0,0,0.00,,,0.00,meteohub,2013-05-03 22:02:00,
2013-05-03 15:07:00,97.2,97.2,29.80,NE,45,0.0,3.0,0,0.00,,,0.00,meteohub,2013-05-03 22:07:00,
2013-05-03 15:12:00,97.2,97.2,29.80,NW,315,1.0,3.0,0,0.00,,,0.00,meteohub,2013-05-03 22:12:00,
2013-05-03 15:17:00,97.3,97.3,29.80,NE,45,2.0,3.0,0,0.00,,,0.00,meteohub,2013-05-03 22:17:00,
2013-05-03 15:22:00,97.7,97.7,29.79,South,180,0.0,3.0,0,0.00,,,0.00,meteohub,2013-05-03 22:22:00,
2013-05-03 15:27:00,98.1,98.1,29.79,NE,45,1.0,3.0,0,0.00,,,0.00,meteohub,2013-05-03 22:27:00,
2013-05-03 15:32:00,97.9,97.9,29.79,NE,45,2.0,4.0,0,0.00,,,0.00,meteohub,2013-05-03 22:32:00,
2013-05-03 15:37:00,97.5,97.5,29.78,NE,45,2.0,4.0,0,0.00,,,0.00,meteohub,2013-05-03 22:37:00,
2013-05-03 15:42:00,97.5,97.5,29.78,North,0,3.0,5.0,0,0.00,,,0.00,meteohub,2013-05-03 22:42:00,
2013-05-03 15:47:00,97.9,97.9,29.78,NE,45,1.0,5.0,0,0.00,,,0.00,meteohub,2013-05-03 22:47:00,
2013-05-03 15:52:00,98.1,98.1,29.78,SW,225,0.0,5.0,0,0.00,,,0.00,meteohub,2013-05-03 22:52:00,
2013-05-03 15:57:00,98.2,98.2,29.78,NE,45,0.0,3.0,0,0.00,,,0.00,meteohub,2013-05-03 22:57:00,
2013-05-03 16:02:00,98.2,98.2,29.77,North,0,1.0,3.0,0,0.00,,,0.00,meteohub,2013-05-03 23:02:00,
2013-05-03 16:07:00,98.2,98.2,29.77,NE,45,1.0,5.0,0,0.00,,,0.00,meteohub,2013-05-03 23:07:00,
2013-05-03 16:12:00,97.9,97.9,29.77,NE,45,2.0,5.0,0,0.00,,,0.00,meteohub,2013-05-03 23:12:00,
2013-05-03 16:17:00,97.5,97.5,29.77,NE,45,2.0,5.0,0,0.00,,,0.00,meteohub,2013-05-03 23:17:00,
2013-05-03 16:22:00,97.3,97.3,29.77,NE,45,0.0,6.0,0,0.00,,,0.00,meteohub,2013-05-03 23:22:00,
2013-05-03 16:27:00,97.3,97.3,29.76,NE,45,2.0,6.0,0,0.00,,,0.00,meteohub,2013-05-03 23:27:00,
2013-05-03 16:32:00,97.2,97.2,29.76,North,0,3.0,6.0,0,0.00,,,0.00,meteohub,2013-05-03 23:32:00,
2013-05-03 16:37:00,97.0,97.0,29.76,North,0,0.0,3.0,0,0.00,,,0.00,meteohub,2013-05-03 23:37:00,
2013-05-03 16:42:00,97.0,97.0,29.76,NE,45,0.0,3.0,0,0.00,,,0.00,meteohub,2013-05-03 23:42:00,
2013-05-03 16:47:00,97.2,97.2,29.75,NE,45,0.0,3.0,0,0.00,,,0.00,meteohub,2013-05-03 23:47:00,
2013-05-03 16:52:00,97.0,97.0,29.76,East,90,3.0,3.0,0,0.00,,,0.00,meteohub,2013-05-03 23:52:00,
2013-05-03 16:57:00,96.6,96.6,29.75,North,0,0.0,4.0,0,0.00,,,0.00,meteohub,2013-05-03 23:57:00,
2013-05-03 17:02:00,96.6,96.6,29.75,NE,45,2.0,4.0,0,0.00,,,0.00,meteohub,2013-05-04 00:02:00,
2013-05-03 17:08:00,96.3,96.3,29.75,NE,45,3.0,4.0,0,0.00,,,0.00,meteohub,2013-05-04 00:08:00,
2013-05-03 17:13:00,95.7,95.7,29.75,NE,45,1.0,4.0,0,0.00,,,0.00,meteohub,2013-05-04 00:13:00,
2013-05-03 17:18:00,95.5,95.5,29.75,NE,45,2.0,4.0,0,0.00,,,0.00,meteohub,2013-05-04 00:18:00,
2013-05-03 17:23:00,95.0,95.0,29.75,NE,45,3.0,4.0,0,0.00,,,0.00,meteohub,2013-05-04 00:23:00,
2013-05-03 17:28:00,94.8,94.8,29.75,North,0,1.0,4.0,0,0.00,,,0.00,meteohub,2013-05-04 00:28:00,
2013-05-03 17:33:00,94.6,94.6,29.75,North,0,0.0,4.0,0,0.00,,,0.00,meteohub,2013-05-04 00:33:00,
2013-05-03 17:38:00,94.5,94.5,29.74,NE,45,0.0,4.0,0,0.00,,,0.00,meteohub,2013-05-04 00:38:00,
2013-05-03 17:43:00,94.3,94.3,29.74,NE,45,0.0,3.0,0,0.00,,,0.00,meteohub,2013-05-04 00:43:00,
2013-05-03 17:48:00,94.3,94.3,29.74,North,0,2.0,3.0,0,0.00,,,0.00,meteohub,2013-05-04 00:48:00,
2013-05-03 17:53:00,94.1,94.1,29.74,NE,45,2.0,3.0,0,0.00,,,0.00,meteohub,2013-05-04 00:53:00,
2013-05-03 17:58:00,93.7,93.7,29.74,ENE,68,0.0,3.0,0,0.00,,,0.00,meteohub,2013-05-04 00:58:00,
2013-05-03 18:03:00,93.7,93.7,29.74,North,0,2.0,2.0,0,0.00,,,0.00,meteohub,2013-05-04 01:03:00,
2013-05-03 18:08:00,93.6,28.8,29.73,North,0,0.0,2.0,10,0.00,,,0.00,meteohub,2013-05-04 01:08:00,
2013-05-03 18:13:00,93.4,28.8,29.73,North,0,0.0,2.0,10,0.00,,,0.00,meteohub,2013-05-04 01:13:00,
2013-05-03 18:18:00,93.2,28.6,29.73,North,0,0.0,2.0,10,0.00,,,0.00,meteohub,2013-05-04 01:18:00,
2013-05-03 18:24:00,93.0,30.7,29.73,North,0,0.0,2.0,11,0.00,,,0.00,meteohub,2013-05-04 01:24:00,
2013-05-03 18:29:00,92.7,30.6,29.73,SE,135,0.0,0.0,11,0.00,,,0.00,meteohub,2013-05-04 01:29:00,
2013-05-03 18:34:00,92.5,30.4,29.73,SE,135,0.0,1.0,11,0.00,,,0.00,meteohub,2013-05-04 01:34:00,
2013-05-03 18:39:00,92.3,32.4,29.72,SW,225,0.0,1.0,12,0.00,,,0.00,meteohub,2013-05-04 01:39:00,
2013-05-03 18:44:00,92.3,30.2,29.73,East,90,0.0,1.0,11,0.00,,,0.00,meteohub,2013-05-04 01:44:00,
2013-05-03 18:49:00,91.9,32.0,29.72,East,90,0.0,0.0,12,0.00,,,0.00,meteohub,2013-05-04 01:49:00,
2013-05-03 18:54:00,91.6,29.7,29.72,South,180,0.0,0.0,11,0.00,,,0.00,meteohub,2013-05-04 01:54:00,
2013-05-03 18:59:00,91.4,40.5,29.72,North,0,0.0,0.0,17,0.00,,,0.00,meteohub,2013-05-04 01:59:00,
2013-05-03 19:04:00,90.7,41.4,29.72,West,270,0.0,0.0,18,0.00,,,0.00,meteohub,2013-05-04 02:04:00,
2013-05-03 19:09:00,89.8,43.3,29.72,SW,225,0.0,0.0,20,0.00,,,0.00,meteohub,2013-05-04 02:09:00,
2013-05-03 19:14:00,88.9,45.1,29.72,SW,225,0.0,0.0,22,0.00,,,0.00,meteohub,2013-05-04 02:14:00,
2013-05-03 19:19:00,88.0,45.5,29.72,SW,225,0.0,0.0,23,0.00,,,0.00,meteohub,2013-05-04 02:19:00,
2013-05-03 19:24:00,87.1,45.9,29.72,SW,225,0.0,0.0,24,0.00,,,0.00,meteohub,2013-05-04 02:24:00,
2013-05-03 19:29:00,86.4,46.4,29.72,North,0,0.0,0.0,25,0.00,,,0.00,meteohub,2013-05-04 02:29:00,
2013-05-03 19:34:00,85.6,46.8,29.72,SW,225,0.0,0.0,26,0.00,,,0.00,meteohub,2013-05-04 02:34:00,
2013-05-03 19:40:00,84.7,48.0,29.72,NW,315,0.0,1.0,28,0.00,,,0.00,meteohub,2013-05-04 02:40:00,
2013-05-03 19:45:00,83.8,49.1,29.72,NW,315,0.0,1.0,30,0.00,,,0.00,meteohub,2013-05-04 02:45:00,
2013-05-03 19:50:00,82.8,49.8,29.72,NE,45,0.0,0.0,32,0.00,,,0.00,meteohub,2013-05-04 02:50:00,
2013-05-03 19:55:00,82.0,49.3,29.72,NE,45,0.0,0.0,32,0.00,,,0.00,meteohub,2013-05-04 02:55:00,
2013-05-03 20:00:00,81.3,49.5,29.72,NE,45,0.0,0.0,33,0.00,,,0.00,meteohub,2013-05-04 03:00:00,
2013-05-03 20:05:00,81.3,49.5,29.71,NE,45,0.0,0.0,33,0.00,,,0.00,meteohub,2013-05-04 03:05:00,
2013-05-03 20:10:00,79.9,48.9,29.72,NE,45,0.0,0.0,34,0.00,,,0.00,meteohub,2013-05-04 03:10:00,
2013-05-03 20:15:00,79.3,49.3,29.72,NE,45,0.0,0.0,35,0.00,,,0.00,meteohub,2013-05-04 03:15:00,
2013-05-03 20:20:00,78.6,48.7,29.71,South,180,0.0,0.0,35,0.00,,,0.00,meteohub,2013-05-04 03:20:00,
2013-05-03 20:25:00,78.1,48.2,29.71,South,180,0.0,0.0,35,0.00,,,0.00,meteohub,2013-05-04 03:25:00,
2013-05-03 20:30:00,77.7,47.8,29.72,South,180,0.0,0.0,35,0.00,,,0.00,meteohub,2013-05-04 03:30:00,
2013-05-03 20:35:00,77.2,48.2,29.72,South,180,0.0,0.0,36,0.00,,,0.00,meteohub,2013-05-04 03:35:00,
2013-05-03 20:40:00,76.8,48.6,29.72,South,180,0.0,0.0,37,0.00,,,0.00,meteohub,2013-05-04 03:40:00,
2013-05-03 20:46:00,76.5,48.9,29.72,South,180,0.0,0.0,38,0.00,,,0.00,meteohub,2013-05-04 03:46:00,
2013-05-03 20:51:00,75.9,48.6,29.72,North,0,0.0,0.0,38,0.00,,,0.00,meteohub,2013-05-04 03:51:00,
2013-05-03 20:56:00,75.4,48.0,29.72,North,0,0.0,0.0,38,0.00,,,0.00,meteohub,2013-05-04 03:56:00,
2013-05-03 21:01:00,75.0,47.7,29.72,North,0,0.0,0.0,38,0.00,,,0.00,meteohub,2013-05-04 04:01:00,
2013-05-03 21:02:00,75.0,47.7,29.72,North,0,0.0,0.0,38,0.00,,,0.00,meteohub,2013-05-04 04:02:00,
2013-05-03 21:07:00,75.0,47.7,29.72,North,0,0.0,0.0,38,0.00,,,0.00,meteohub,2013-05-04 04:07:00,
2013-05-03 21:12:00,73.9,47.5,29.72,South,180,0.0,0.0,39,0.00,,,0.00,meteohub,2013-05-04 04:12:00,
2013-05-03 21:17:00,73.6,47.8,29.72,West,270,0.0,0.0,40,0.00,,,0.00,meteohub,2013-05-04 04:17:00,
2013-05-03 21:24:00,73.0,47.3,29.72,South,180,0.0,0.0,40,0.00,,,0.00,meteohub,2013-05-04 04:24:00,
2013-05-03 21:29:00,72.7,46.9,29.72,SE,135,0.0,0.0,40,0.00,,,0.00,meteohub,2013-05-04 04:29:00,
2013-05-03 21:34:00,72.3,46.6,29.72,SE,135,0.0,0.0,40,0.00,,,0.00,meteohub,2013-05-04 04:34:00,
2013-05-03 21:39:00,72.0,46.4,29.72,North,0,0.0,0.0,40,0.00,,,0.00,meteohub,2013-05-04 04:39:00,
2013-05-03 21:44:00,71.8,46.2,29.72,NW,315,0.0,0.0,40,0.00,,,0.00,meteohub,2013-05-04 04:44:00,
2013-05-03 21:49:00,71.6,46.0,29.72,NW,315,0.0,0.0,40,0.00,,,0.00,meteohub,2013-05-04 04:49:00,
2013-05-03 21:54:00,71.4,45.9,29.72,West,270,0.0,0.0,40,0.00,,,0.00,meteohub,2013-05-04 04:54:00,
2013-05-03 21:59:00,71.2,46.4,29.72,West,270,0.0,0.0,41,0.00,,,0.00,meteohub,2013-05-04 04:59:00,
2013-05-03 22:04:00,71.1,46.2,29.72,West,270,0.0,0.0,41,0.00,,,0.00,meteohub,2013-05-04 05:04:00,
2013-05-03 22:09:00,70.7,45.9,29.72,West,270,0.0,0.0,41,0.00,,,0.00,meteohub,2013-05-04 05:09:00,
2013-05-03 22:15:00,70.3,46.2,29.72,West,270,0.0,0.0,42,0.00,,,0.00,meteohub,2013-05-04 05:15:00,
2013-05-03 22:20:00,70.2,46.0,29.72,West,270,0.0,0.0,42,0.00,,,0.00,meteohub,2013-05-04 05:20:00,
2013-05-03 22:25:00,70.0,46.4,29.72,West,270,0.0,0.0,43,0.00,,,0.00,meteohub,2013-05-04 05:25:00,
2013-05-03 22:30:00,69.6,46.8,29.71,West,270,0.0,0.0,44,0.00,,,0.00,meteohub,2013-05-04 05:30:00,
2013-05-03 22:35:00,69.4,46.6,29.71,West,270,0.0,0.0,44,0.00,,,0.00,meteohub,2013-05-04 05:35:00,
2013-05-03 22:40:00,69.3,46.9,29.71,West,270,0.0,0.0,45,0.00,,,0.00,meteohub,2013-05-04 05:40:00,
2013-05-03 22:45:00,69.1,46.8,29.71,West,270,0.0,0.0,45,0.00,,,0.00,meteohub,2013-05-04 05:45:00,
2013-05-03 22:50:00,68.7,46.6,29.70,West,270,0.0,0.0,45,0.00,,,0.00,meteohub,2013-05-04 05:50:00,
2013-05-03 22:55:00,68.4,46.2,29.70,West,270,0.0,0.0,45,0.00,,,0.00,meteohub,2013-05-04 05:55:00,
2013-05-03 23:00:00,67.8,46.2,29.70,West,270,0.0,0.0,46,0.00,,,0.00,meteohub,2013-05-04 06:00:00,
2013-05-03 23:05:00,67.8,46.2,29.70,West,270,0.0,0.0,46,0.00,,,0.00,meteohub,2013-05-04 06:05:00,
2013-05-03 23:10:00,66.9,45.5,29.70,SW,225,0.0,0.0,46,0.00,,,0.00,meteohub,2013-05-04 06:10:00,
2013-05-03 23:15:00,66.6,45.1,29.70,SW,225,0.0,0.0,46,0.00,,,0.00,meteohub,2013-05-04 06:15:00,
2013-05-03 23:20:00,66.4,44.4,29.70,South,180,0.0,0.0,45,0.00,,,0.00,meteohub,2013-05-04 06:20:00,
2013-05-03 23:25:00,66.0,44.1,29.69,South,180,0.0,0.0,45,0.00,,,0.00,meteohub,2013-05-04 06:25:00,
2013-05-03 23:31:00,65.7,43.7,29.70,NE,45,0.0,0.0,45,0.00,,,0.00,meteohub,2013-05-04 06:31:00,
2013-05-03 23:36:00,65.5,44.2,29.69,West,270,0.0,0.0,46,0.00,,,0.00,meteohub,2013-05-04 06:36:00,
2013-05-03 23:41:00,65.3,44.1,29.70,West,270,0.0,0.0,46,0.00,,,0.00,meteohub,2013-05-04 06:41:00,
2013-05-03 23:46:00,65.3,44.1,29.70,West,270,0.0,0.0,46,0.00,,,0.00,meteohub,2013-05-04 06:46:00,
2013-05-03 23:51:00,64.9,43.7,29.70,West,270,0.0,0.0,46,0.00,,,0.00,meteohub,2013-05-04 06:51:00,
2013-05-03 23:56:00,64.8,43.5,29.70,West,270,0.0,0.0,46,0.00,,,0.00,meteohub,2013-05-04 06:56:00,